Regional Weather Roundup
Issued by NWS

Home | Current Version | Previous Version | Graphics & Text | Print | Product List | Glossary On
Versions: 1 2 3 4 5 6 7 8 9 10 11 12 13 14 15 16 17 18 19 20 21 22 23 24 25 26 27 28 29 30 31 32 33 34 35 36 37 38 39 40 41 42 43 44 45 46 47 48 49 50
000
ASUS43 KDTX 232201
RWRMI
MICHIGAN HOURLY REGIONAL WEATHER ROUNDUP
NATIONAL WEATHER SERVICE DETROIT/PONTIAC MI
600 PM EDT TUE SEP 23 2014

NOTE: "FAIR" INDICATES FEW OR NO CLOUDS BELOW 12,000 FEET WITH NO
SIGNIFICANT WEATHER AND/OR OBSTRUCTION TO VISIBILITY.

MIZ047>049-052>055-059>063-066>070-074>076-081>083-232300-
SOUTHEAST LOWER MICHIGAN

CITY           SKY/WX    TMP DP  RH WIND       PRES   REMARKS
ADRIAN         SUNNY     72  46  39 CALM      30.31F
ALMA           MOSUNNY   72  52  48 W5        30.30S
ANN ARBOR      SUNNY     70  48  45 CALM      30.31S
BAD AXE        SUNNY     70  53  55 CALM      30.31S
CARO           SUNNY     71  54  55 CALM      30.30R
DETROIT CITY   SUNNY     73  49  42 W3        30.31S
DETROIT        SUNNY     69  49  48 S5        30.32S
FLINT          SUNNY     73  52  47 SW5       30.30S
GROSSE ILE     SUNNY     64  52  63 SE6       30.32R
HILLSDALE      SUNNY     71  48  43 CALM      30.31S
HOWELL         SUNNY     70  50  48 NW3       30.30F

CITY           SKY/WX    TMP DP  RH WIND       PRES   REMARKS
JACKSON        SUNNY     71  50  47 W3        30.31S
LAMBERTVILLE   SUNNY     70  46  43 CALM      30.32R
LANSING        SUNNY     73  51  46 W7        30.31S
LAPEER         FAIR      70  51  51 CALM      30.31S
MASON          SUNNY     71  52  50 CALM      30.30F
MONROE         SUNNY     70  52  52 SE6       30.30S
MT. CLEMENS    MOSUNNY   66  50  56 SE10      30.30S
PONTIAC        MOSUNNY   70  49  47 CALM      30.30F
PORT HOPE        N/A     68  55  63 E3        30.28S
PORT HURON     SUNNY     68  54  60 S5        30.32S
TRI CITIES     SUNNY     74  53  48 CALM      30.30S
TROY           SUNNY     72  47  40 CALM      30.32S
SAGINAW HB     SUNNY     72  50  46 CALM      30.29S
$$
MIZ043>046-050>051-056>058-064>065-071>073-077>080-232300-
SOUTHWEST LOWER MICHIGAN

CITY           SKY/WX    TMP DP  RH WIND       PRES   REMARKS
BATTLE CREEK   SUNNY     71  50  47 CALM      30.31S
BENTON HARBOR  SUNNY     65  46  50 NW3       30.30F
BIG RAPIDS     SUNNY     71  56  58 W5        30.29S
COLDWATER      SUNNY     73  47  40 CALM      30.30S
FREMONT        FAIR      69  50  50 SW6       30.29F
HOLLAND        SUNNY     69  49  48 W5        30.31F
GRAND RAPIDS   MOSUNNY   72  54  53 W6        30.30F
IONIA          FAIR      72  53  50 W6        30.29S
KALAMAZOO      SUNNY     72  51  47 NW3       30.30F
LUDINGTON      SUNNY     67  53  61 SW6       30.29F
MARSHALL       SUNNY     72  51  47 W5        30.29F
MOUNT PLEASANT SUNNY     73  52  47 CALM      30.28S
MUSKEGON       SUNNY     66  53  63 S6        30.30F
SOUTH HAVEN    SUNNY     68  47  47 NW3       30.30F
$$
MIZ016>042-232300-
NORTHERN LOWER MICHIGAN

CITY           SKY/WX    TMP DP  RH WIND       PRES   REMARKS
ALPENA         SUNNY     68  55  63 E6        30.28R
BEAVER ISLAND  SUNNY     65  56  73 SW5       30.27S
BELLAIRE       SUNNY     73  54  51 CALM      30.27S
CADILLAC       SUNNY     70  56  60 SW5       30.29S
CHARLEVOIX     SUNNY     67  56  66 W8        30.30S
FRANKFORT      SUNNY     66  52  60 SW6       30.28F
GAYLORD        SUNNY     70  53  54 NW3       30.29S
GRAYLING       SUNNY     74  54  49 NW5       30.29S
HARBOR SPRINGS SUNNY     68  54  60 W7        30.27S
HOUGHTON LAKE  SUNNY     71  53  52 SW3       30.29S
MANISTEE       SUNNY     68  54  60 CALM      30.29S
OSCODA         MOSUNNY   73  56  56 S7        30.26S
PELLSTON       SUNNY     69  54  58 SW8       30.27S
ROGERS CITY    SUNNY     63  55  77 CALM      30.29S
TRAVERSE CITY  MOSUNNY   72  53  51 W5        30.26S
$$
MIZ007>008-015-232300-
EASTERN UPPER MICHIGAN

CITY           SKY/WX    TMP DP  RH WIND       PRES   REMARKS
KINROSS        PTSUNNY   72  57  60 SW5       30.26R
MACKINAC ISLAN SUNNY     63  55  75 SW8       30.27S
NEWBERRY       SUNNY     69  55  60 SW8G16    30.25R
S. S. MARIE    SUNNY     71  53  52 NW7       30.25R
$$
MIZ004>006-011>014-085-232300-
CENTRAL UPPER MICHIGAN

CITY           SKY/WX    TMP DP  RH WIND       PRES   REMARKS
MANISTIQUE     SUNNY     63  55  76 S7        30.25S
ESCANABA       SUNNY     66  52  59 S12       30.23S
MENOMINEE      SUNNY     72  54  53 SW9       30.23S
SAWYER-GWINN   SUNNY     73  55  53 CALM      30.22F
$$
MIZ001>003-009>011-084-232300-
WESTERN UPPER MICHIGAN

CITY           SKY/WX    TMP DP  RH WIND       PRES   REMARKS
IRON MOUNTAIN  SUNNY     75  52  44 S7        30.21F
HOUGHTON       SUNNY     67  53  61 E10       30.21S
COPPER HARBOR    N/A     61  50  67 E3        30.21F
IRONWOOD       SUNNY     73  50  43 S6        30.16F
$$

ABBREVIATIONS USED IN REMARKS
   TC - TEMPERATURE IN CELSIUS
  WCI - WIND CHILL INDEX
   HX - HEAT INDEX
  VSB - VISIBILITY




USA.gov is the U.S. government's official web portal to all federal, state and local government web resources and services.